Regional Weather Roundup
Issued by NWS

Home | Current Version | Previous Version | Graphics & Text | Print | Product List | Glossary On
Versions: 1 2 3 4 5 6 7 8 9 10 11 12 13 14 15 16 17 18 19 20 21 22 23 24 25 26 27
000
ASUS45 KBOU 290507
RWRCO

WEATHER ROUNDUP FOR COLORADO
NATIONAL WEATHER SERVICE DENVER/BOULDER CO
1100 PM MDT TUE MAR 28 2017

NOTE: "FAIR" INDICATES FEW OR NO CLOUDS BELOW 12000 FEET WITH NO
SIGNIFICANT WEATHER AND/OR OBSTRUCTIONS TO VISIBILITY.

COZ001>005-013-030-031-290600-
...NORTHWEST COLORADO...

CITY           SKY/WX    TMP DP  RH WIND       PRES   REMARKS
CRAIG          FAIR      37  29  72 N10       30.10R
HAYDEN         FAIR      34  27  75 S8        30.09R WCI  27
MEEKER         FAIR      37  31  78 NE8       30.09R
MOUNT WERNER   NOT AVBL
STEAMBOAT SPGS FAIR      34  32  95 CALM      30.08R
WALDEN         NOT AVBL
$$

COZ006>008-011-290600-
...WEST CENTRAL VALLEYS...

CITY           SKY/WX    TMP DP  RH WIND       PRES   REMARKS
GRAND JUNCTION FAIR      46  34  62 N9        30.02R
MONTROSE       MOCLDY    43  35  73 N9        30.00R
EAGLE          CLOUDY    43  28  56 N10       30.07R
RIFLE          FAIR      45  33  63 NW12      30.03S
DELTA          FAIR      49  34  55 NW15      29.96R
NUCLA          FAIR      45  32  61 NW17G23   30.00S
$$

COZ017>023-064>068-290600-
...SOUTHWEST COLORADO...

CITY           SKY/WX    TMP DP  RH WIND       PRES   REMARKS
DURANGO        FAIR      38  34  85 E5        29.85R
CORTEZ         FAIR      44  33  65 N7        29.91S
PAGOSA SPRINGS LGT RAIN  38  37  97 CALM      29.87R
TELLURIDE      LGT SNOW  32  31  96 W8G23     29.97S WCI  25
WOLF CREEK PAS CLOUDY    23  23 100 MISG      29.97S
$$

COZ009-010-012-014-032>034-037-058>063-290600-
...CENTRAL COLORADO...

CITY           SKY/WX    TMP DP  RH WIND       PRES   REMARKS
ASPEN          MOCLDY    37  30  75 NW12      30.01S
BUENA VISTA    RAIN      36  33  90 W7        29.98F
COPPER MTN     CLOUDY    27  21  80 MISG      30.08R
BERTHOUD PASS  SNOW      18   9  68 NE5       30.11S VSB 1/4 WCI  11
COTTONWOOD PAS LGT SNOW  32  32 100 CALM      30.02S VSB 1
GUNNISON       FAIR      36  34  92 CALM      29.97R
KREMMLING      CLOUDY    41  32  70 N7        30.09R
LEADVILLE      CLOUDY    28  24  85 N14       30.02S WCI  17
MONARCH PASS   CLOUDY    23  21  93 NE40G51   30.00R WCI   3
SALIDA         CLOUDY    39  37  92 CALM      30.02F
SUNLIGHT       CLOUDY   N/A N/A N/A NE7       30.13S FOG
WILKERSON PASS CLOUDY    25  23  93 N18G29    30.00F FOG     WCI  11
$$

COZ069>075-290600-
...SAN LUIS VALLEY/SANGRE DE CRISTO MOUNTAINS...

CITY           SKY/WX    TMP DP  RH WIND       PRES   REMARKS
ALAMOSA        CLOUDY    35  34  96 W6        29.89R WCI  30
LA VETA PASS   NOT AVBL
SAGUACHE       MOCLDY    39  27  60 NW14      29.90F
$$

COZ035-036-038>040-290600-
...NORTHERN COLORADO FRONT RANGE...

CITY           SKY/WX    TMP DP  RH WIND       PRES   REMARKS
DENVER INTL AP RAIN      37  37 100 N28       30.03R FOG
DMNS CITY PARK   N/A     38  37  94 N9G23     30.05S
AURORA         LGT RAIN  36  36  99 N24G33    30.03S FOG
FRONT RANGE AP NOT AVBL
ERIE MUNI ARPT LGT RAIN  40  38  93 N17G23    30.07S
BOULDER MUN AP CLOUDY    39  37  93 N13G18    30.07S
CENTENNIAL     LGT RAIN  37  32  82 N28G35    30.02S
BROOMFIELD     NOT AVBL
FORT COLLINS   LGT RAIN  40  37  89 N13       30.09R
LONGMONT       CLOUDY    43  38  83 N12G17    30.10R
$$

COZ041-046-047-076>085-087-088-290600-
...PIKES PEAK/PALMER DIVIDE AND SOUTHERN FOOTHILLS...

CITY           SKY/WX    TMP DP  RH WIND       PRES   REMARKS
COLO. SPRINGS  MOCLDY    39  33  79 N22G29    29.98R
A. F. ACADEMY  NOT AVBL
SCHRIEVER AFB  LGT RAIN  38  35  88 N16G22    29.98
ELLICOTT       CLOUDY   N/A N/A N/A NE7       29.97R
FALCON         RAIN      36  33  90 N18G30    29.98R
FORT CARSON    CLOUDY    41  35  78 N25G35    29.96R
LIMON          LGT RAIN  36  36 100 NE8       29.99R
MONUMENT HILL  SNOW      32  32 100 N20G32    29.98F VSB 1/2 WCI  20
TRINIDAD       CLOUDY    40  38  93 NE15      29.92R FOG
$$

COZ042>045-048>051-090-091-290600-
...NORTHEAST COLORADO...

CITY           SKY/WX    TMP DP  RH WIND       PRES   REMARKS
GREELEY ARPT   CLOUDY    39  36  89 NE10      30.09R
AKRON          LGT RAIN  36  34  92 NE12      30.00F
BURLINGTON     CLOUDY    39  39 100 NE14      29.99S FOG
WRAY           LGT RAIN N/A N/A N/A N10       30.04S
STERLING       DRIZZLE   39  37  93 NE8       30.07R
HOLYOKE        RAIN      43  41  93 N10       30.07R
FORT MORGAN    LGT RAIN  36  35  95 NE10      30.06S
$$

COZ086-089-092>099-290600-
...SOUTHEAST COLORADO...

CITY           SKY/WX    TMP DP  RH WIND       PRES   REMARKS
PUEBLO         LGT RAIN  43  41  93 E7        29.96R
LA JUNTA       CLOUDY    42  39  89 NE14      29.96R
LAMAR          CLOUDY    42  39  89 NE15      29.94R
SPRINGFIELD      N/A     40  40 100 NE16G23   29.89S
$$




USA.gov is the U.S. government's official web portal to all federal, state and local government web resources and services.